Flag for Belgium Weather past 2 weeks in Leuven, Belgium

Now
50 °F

Passing clouds.


Feels Like: 42 °F
Forecast: 41 / 48 °F
Wind: 33 mph from Southwest

Location: Brussels National Airport

Current Time: Mar 31, 2015 at 5:33:53 AM

Latest Report: Mar 31, 2015 at 4:50 AM


Visibility: N/A

Pressure: 29.42 "Hg

Humidity: 88%

Dew point: 46 °F

Location of LeuvenLocation

Historic Weather in Leuven — Graph

°F

Leuven temperature yesterday

Maximum temperature yesterday: 48 °F (at 12:20 AM)
Minimum temperature yesterday: 43 °F (at 6:50 AM)
Average temperature yesterday: 46 °F

Past Weeks' High & Low Weather Summary

 TemperatureHumidityPressure
High63 °F (Mar 17, 2:50 PM)100% (Mar 16, 8:20 AM)30.42 "Hg (Mar 16, 8:20 AM)
Low28 °F (Mar 23, 2:50 AM)39% (Mar 17, 3:50 PM)29.39 "Hg (Mar 29, 4:50 PM)
Average43 °F81%30.02 "Hg
* Reported Mar 16 2:20 AM — Mar 31 3:50 AM, Leuven, Weather by CustomWeather, © 2015

Note: Actual official high and low records may vary slightly from our data, if they occured in-between our weather recording intervals... More about our weather records

Advertising

Leuven weather history for previous 24 hours

 ConditionsComfort  
Time TempWeatherWind HumidityBarometerVisibility
3:50 AM
Tue, Mar 31
52 °FPassing clouds.32 mph82%29.45 "HgN/A
3:20 AM52 °FPassing clouds.32 mph82%29.45 "HgN/A
2:50 AM50 °FLight rain. Passing clouds.30 mph94%29.47 "HgN/A
2:20 AM50 °FRain. Passing clouds.29 mph88%29.50 "Hg4 mi
1:50 AM48 °FRain. Passing clouds.31 mph87%29.50 "Hg3 mi
1:20 AM48 °FLight rain. Passing clouds.25 mph82%29.56 "Hg3 mi
12:50 AM46 °FLight rain. Passing clouds.24 mph87%29.59 "HgN/A
12:20 AM45 °FLight rain. Passing clouds.21 mph93%29.62 "HgN/A
11:50 PM
Mon, Mar 30
45 °FLight rain. Passing clouds.20 mph87%29.65 "Hg5 mi
11:20 PM45 °FLight rain. Passing clouds.16 mph81%29.68 "HgN/A
10:50 PM45 °FLight rain. Passing clouds.14 mph81%29.74 "HgN/A
10:20 PM45 °FLight rain. Passing clouds.16 mph76%29.77 "HgN/A
9:50 PM46 °FPassing clouds.15 mph66%29.80 "HgN/A
9:20 PM46 °FClear.13 mph62%29.80 "Hg10 mi
8:50 PM46 °FPassing clouds.16 mph66%29.83 "HgN/A
8:20 PM46 °FPassing clouds.15 mph62%29.86 "HgN/A
7:50 PM46 °FPassing clouds.13 mph62%29.86 "HgN/A
7:20 PM48 °FPassing clouds.12 mph58%29.86 "HgN/A
6:50 PM48 °FScattered clouds.13 mph54%29.89 "HgN/A
6:20 PM48 °FScattered clouds.15 mph50%29.89 "HgN/A
5:50 PM48 °FPassing clouds.14 mph50%29.89 "HgN/A
5:20 PM48 °FPassing clouds.15 mph50%29.89 "HgN/A
4:50 PM48 °FPassing clouds.17 mph50%29.89 "HgN/A
4:20 PM48 °FPassing clouds.18 mph50%29.89 "HgN/A
3:50 PM48 °FScattered clouds.18 mph50%29.86 "HgN/A
3:20 PM48 °FScattered clouds.20 mph54%29.86 "HgN/A
2:50 PM48 °FScattered clouds.23 mph50%29.86 "HgN/A
2:20 PM48 °FScattered clouds.22 mph54%29.86 "HgN/A
1:50 PM48 °FScattered clouds.20 mph54%29.83 "HgN/A
1:20 PM46 °FScattered clouds.23 mph57%29.83 "HgN/A
12:50 PM46 °FScattered showers. Scattered clouds.20 mph66%29.80 "HgN/A
12:20 PM45 °FScattered showers. Scattered clouds.23 mph66%29.80 "HgN/A
11:50 AM45 °FScattered showers. Partly sunny.25 mph66%29.77 "HgN/A
11:20 AM46 °FScattered showers. Scattered clouds.18 mph66%29.74 "HgN/A
10:50 AM45 °FScattered showers. Scattered clouds.20 mph66%29.74 "HgN/A
10:20 AM45 °FPartly sunny.22 mph66%29.74 "HgN/A
9:50 AM45 °FPartly sunny.22 mph66%29.71 "HgN/A
9:20 AM45 °FPartly sunny.21 mph71%29.68 "HgN/A
8:50 AM45 °FPartly sunny.20 mph71%29.68 "HgN/A
8:20 AM45 °FPassing clouds.14 mph81%29.65 "HgN/A
7:50 AM45 °FPassing clouds.16 mph76%29.62 "HgN/A
7:20 AM43 °FPassing clouds.14 mph81%29.59 "HgN/A
6:50 AM43 °FClear.14 mph81%29.59 "Hg10 mi
6:20 AM45 °FPassing clouds.17 mph76%29.56 "HgN/A
5:50 AM45 °FClear.15 mph76%29.56 "Hg10 mi
5:20 AM45 °FClear.20 mph76%29.56 "Hg10 mi
Weather by CustomWeather, © 2015

See weather overviewHow to use our weather pages